Orbital Elements at Epoch 2459000.5 (2020-May-31.0) TDB
Reference: JPL 28 (heliocentric ecliptic J2000)
Element | Value | Uncertainty (1-sigma) | Units |
e | .2760926118302961 | 5.6862e-08 | |
a | 2.663567806235248 | 1.4718e-08 | au |
q | 1.928176413824667 | 1.528e-07 | au |
i | 13.11680092260292 | 6.9366e-06 | deg |
node | 326.2349844157999 | 1.8687e-05 | deg |
peri | 39.19022146737734 | 2.0986e-05 | deg |
M | 193.2243025027572 | 1.1424e-05 | deg |
tp | 2459736.070540282227 (2022-Jun-05.57054028) | 5.4749e-05 | TDB |
period | 1587.793656242868 4.35 | 1.3161e-05 3.603e-08 | d yr |
n | .2267297130106021 | 1.8793e-09 | deg/d |
Q | 3.39895919864583 | 1.8782e-08 | au |
|
| | Orbit Determination Parameters
Additional Information
|